World > North America > United States > Missouri > Strafford

Strafford, MO Hourly Weather Conditions

Feedback E-mail the Weather

Quick WX

Strafford, MO Weather Maps

°F °C°F °C
Strafford Weather Map
UTC Time: 2/4/2023, 08:50
Your Time:

Strafford, MO Regional Weather

Expires:202302040900;;773088
ASUS43 KEAX 040815
RWREAX

WEATHER ROUNDUP FOR EASTERN KANSAS AND NORTHWEST MISSOURI
NATIONAL WEATHER SERVICE KANSAS CITY/PLEASANT HILL MO
200 AM CST SAT FEB 04 2023


MOZ041-047>049-056>058-063>065-088>090-097-040900-
...EASTERN AND SOUTHERN MISSOURI...
  
CITY           SKY/WX    TMP DP  RH WIND       PRES   REMARKS
ST. LOUIS INTL PTCLDY    23   9  55 SE9       30.40F WCI  13          
SPIRIT OF STL  PTCLDY    19   9  65 E3        30.39F                  
COLUMBIA       PTCLDY    25   8  48 SE9       30.30F WCI  15          
JEFFERSON CITY CLEAR     24   9  52 SE8       30.33F WCI  15          
MEXICO         CLEAR     19  10  68 SE9       30.31F WCI   9          
HANNIBAL       CLEAR     21   7  53 S9        30.30F WCI  11          
ROLLA          CLEAR     28  13  53 S15       30.33F WCI  16          
LEBANON        CLEAR     30  14  51 S8        30.32F WCI  23          
OSAGE BEACH    CLEAR     30  15  53 S8          N/A  WCI  22          
SPRINGFIELD    CLEAR     31  20  63 S14       30.31F WCI  21          
BRANSON        CLEAR     30  27  86 SE6       30.36F WCI  24          
JOPLIN         PTCLDY    40  27  59 S18       30.30F WCI  31          
WEST PLAINS    CLEAR     25  15  66 S9        30.40F WCI  15          
SIKESTON       CLEAR     23  18  80 CALM      30.51F                  

$$


SKY/WX - Weather  TMP - Temperature  DP - Dew Point  RH - Humidity
WIND - Wind Direction/Speed PRES - Barometric Pressure VSB - Visibility
WCI - Wind Chill Index E13G22 Wind - East Wind 13 mph/Gusts of 22 mph

Trending Headlines

Trending Entertainment Headlines

Strafford Radar Loop

Use the map search tool if you want to place a location marker on the radar map...

Strafford Quick Facts

National Two Day Weather Forecast


E-mail the Strafford Weather Forecast

Voice your opinion or tell us about page issues...